Howell, MI

8:00 PM EDT on May 27, 2017 (GMT -0400)
Livingston County

Weather History for KOZW - March, 2013

Change the Weather History Date:

Wednesday, March 20, 2013

  Actual Average Record
Temperature  
Mean Temperature 22 °F -  
Max Temperature 28 °F 43 °F 81 °F (2012)
Min Temperature 16 °F 26 °F 16 °F (2013)
Degree Days  
Heating Degree Days 42    
Moisture  
Dew Point 12 °F    
Average Humidity 62    
Maximum Humidity 76    
Minimum Humidity 51    
Precipitation  
Precipitation 0.00 in - - ()
Sea Level Pressure  
Sea Level Pressure 29.89 in    
Wind  
Wind Speed 11 mph (West)    
Max Wind Speed 18 mph    
Max Gust Speed 28 mph    
Visibility 9 miles    
Events Snow    
Averages and records for this station are not official NWS values.
T = Trace of Precipitation, MM = Missing Value Source: NWS Daily Summary

Daily Weather History Graph

Daily Weather History Graph

Search for Another Location

Airport or City:

Trip Planner

Search our weather history database for the weather conditions in past years. The results will help you decide how hot, cold, wet, or windy it might be!

Date:

Astronomy

Mar. 20, 2013 Rise Set
Actual Time 7:38 AM EDT 7:48 PM EDT
Civil Twilight 7:10 AM EDT 8:16 PM EDT
Nautical Twilight 6:37 AM EDT 8:49 PM EDT
Astronomical Twilight 6:04 AM EDT 9:23 PM EDT
Moon 1:15 PM EDT (3/20) 3:24 AM EDT (3/20)
Length of Visible Light 13h 06m
Length of Day
12h 09m
First Quarter, 59% of the Moon is Illuminated
Mar 20
First Quarter
Mar 27
Full
Apr 3
Last Quarter
Apr 10
New
Apr 18
First Quarter

Hourly Weather History & Observations

Time (EDT) Temp. Windchill Dew Point Humidity Pressure Visibility Wind Dir Wind Speed Gust Speed Precip Events Conditions
12:15 AM 25.5 °F 16.9 °F 15.8 °F 67% 29.90 in 10.0 mi West 8.1 mph 16.1 mph N/A   Scattered Clouds
12:34 AM 25.5 °F 13.8 °F 15.8 °F 67% 29.90 in 10.0 mi West 13.8 mph - N/A   Scattered Clouds
12:54 AM 24.8 °F 15.3 °F 15.4 °F 68% 29.90 in 10.0 mi West 9.2 mph - N/A   Scattered Clouds
1:15 AM 24.8 °F 16.9 °F 15.6 °F 68% 29.90 in 10.0 mi West 6.9 mph - N/A   Scattered Clouds
1:34 AM 25.7 °F 16.4 °F 16.0 °F 67% 29.89 in 10.0 mi West 9.2 mph - N/A   Overcast
1:55 AM 26.2 °F 17.1 °F 16.3 °F 66% 29.89 in 10.0 mi West 9.2 mph - N/A   Overcast
2:15 AM 26.2 °F 16.4 °F 16.0 °F 65% 29.89 in 10.0 mi West 10.4 mph - N/A   Overcast
2:34 AM 26.2 °F 17.1 °F 15.8 °F 65% 29.90 in 10.0 mi West 9.2 mph - N/A   Overcast
2:55 AM 25.7 °F 17.1 °F 15.3 °F 65% 29.89 in 10.0 mi West 8.1 mph - N/A   Overcast
3:14 AM 25.3 °F 14.7 °F 14.5 °F 64% 29.89 in 10.0 mi West 11.5 mph - N/A   Mostly Cloudy
3:34 AM 24.8 °F 16.9 °F 13.8 °F 63% 29.89 in 10.0 mi West 6.9 mph - N/A   Scattered Clouds
3:55 AM 24.8 °F 13.4 °F 13.1 °F 61% 29.88 in 10.0 mi West 12.7 mph 18.4 mph N/A   Scattered Clouds
4:14 AM 24.8 °F 14.0 °F 12.9 °F 61% 29.88 in 10.0 mi West 11.5 mph - N/A   Mostly Cloudy
4:34 AM 25.3 °F 14.1 °F 12.0 °F 57% 29.88 in 10.0 mi West 12.7 mph 19.6 mph N/A   Overcast
4:55 AM 24.8 °F 13.4 °F 11.8 °F 58% 29.88 in 10.0 mi West 12.7 mph 17.3 mph N/A   Overcast
5:14 AM 24.8 °F 16.1 °F 11.3 °F 57% 29.88 in 10.0 mi West 8.1 mph - N/A   Overcast
5:34 AM 23.9 °F 15.8 °F 11.1 °F 58% 29.87 in 10.0 mi West 6.9 mph - N/A   Overcast
5:55 AM 23.4 °F 13.5 °F 11.1 °F 60% 29.87 in 10.0 mi West 9.2 mph - N/A   Mostly Cloudy
6:14 AM 23.0 °F 13.9 °F 11.3 °F 61% 29.87 in 10.0 mi West 8.1 mph - N/A   Scattered Clouds
6:34 AM 22.6 °F 13.4 °F 11.7 °F 63% 29.88 in 10.0 mi West 8.1 mph - N/A   Clear
6:55 AM 22.1 °F 12.8 °F 12.0 °F 65% 29.88 in 10.0 mi West 8.1 mph - N/A   Scattered Clouds
7:14 AM 23.0 °F 13.1 °F 12.7 °F 65% 29.88 in 10.0 mi West 9.2 mph - N/A   Mostly Cloudy
7:35 AM 23.7 °F 14.7 °F 13.1 °F 64% 29.89 in 10.0 mi West 8.1 mph - N/A   Overcast
7:54 AM 23.5 °F 12.4 °F 13.1 °F 64% 29.89 in 10.0 mi West 11.5 mph 16.1 mph N/A   Overcast
8:14 AM 23.5 °F 11.8 °F 13.1 °F 64% 29.89 in 10.0 mi West 12.7 mph - N/A   Overcast
8:35 AM 23.7 °F 12.6 °F 13.3 °F 64% 29.89 in 10.0 mi West 11.5 mph 16.1 mph N/A   Overcast
8:54 AM 23.9 °F 12.9 °F 13.3 °F 64% 29.89 in 10.0 mi West 11.5 mph 17.3 mph N/A   Overcast
9:14 AM 23.7 °F 12.6 °F 13.3 °F 64% 29.90 in 10.0 mi West 11.5 mph 21.9 mph N/A   Overcast
9:35 AM 24.6 °F 13.2 °F 13.8 °F 64% 29.90 in 10.0 mi West 12.7 mph - N/A   Mostly Cloudy
9:54 AM 25.0 °F 13.6 °F 13.1 °F 61% 29.90 in 10.0 mi West 12.7 mph 16.1 mph N/A   Mostly Cloudy
10:14 AM 24.8 °F 12.4 °F 13.3 °F 62% 29.89 in 10.0 mi West 15.0 mph - N/A Snow Light Snow
10:35 AM 24.8 °F 12.4 °F 12.7 °F 60% 29.89 in 10.0 mi West 15.0 mph - N/A Snow Light Snow
10:54 AM 24.6 °F 13.8 °F 13.8 °F 64% 29.89 in 3.0 mi WNW 11.5 mph - N/A Snow Light Snow
11:14 AM 23.9 °F 12.9 °F 14.2 °F 66% 29.89 in 2.5 mi West 11.5 mph 16.1 mph N/A Snow Light Snow
11:54 AM 25.3 °F 15.3 °F 16.5 °F 69% 29.89 in 3.0 mi WNW 10.4 mph - N/A Snow Light Snow
12:15 PM 26.6 °F 13.8 °F 14.5 °F 60% 29.88 in 10.0 mi West 17.3 mph 24.2 mph N/A   Overcast
12:34 PM 26.2 °F 14.2 °F 12.9 °F 57% 29.89 in 10.0 mi West 15.0 mph - N/A   Overcast
12:54 PM 27.5 °F 16.3 °F 11.5 °F 51% 29.88 in 10.0 mi WNW 13.8 mph 19.6 mph N/A   Mostly Cloudy
1:12 PM 28.2 °F 15.5 °F 14.4 °F 56% 29.88 in 7.0 mi West 18.4 mph 25.3 mph N/A   Overcast
1:35 PM 26.2 °F 13.0 °F 12.4 °F 56% 29.88 in 7.0 mi West 18.4 mph 23.0 mph N/A Snow Light Snow
1:54 PM 28.8 °F 17.5 °F 13.5 °F 53% 29.88 in 10.0 mi West 15.0 mph 20.7 mph N/A   Overcast
2:14 PM 27.3 °F 14.8 °F 13.5 °F 56% 29.88 in 10.0 mi West 17.3 mph 21.9 mph N/A Snow Light Snow
2:35 PM 28.4 °F 17.5 °F 14.0 °F 55% 29.87 in 10.0 mi West 13.8 mph 17.3 mph N/A   Mostly Cloudy
2:54 PM 26.4 °F 14.0 °F 13.1 °F 57% 29.87 in 7.0 mi West 16.1 mph 21.9 mph N/A Snow Light Snow
3:14 PM 26.4 °F 15.0 °F 11.3 °F 53% 29.87 in 10.0 mi West 13.8 mph 18.4 mph N/A Snow Light Snow
3:34 PM 25.9 °F 13.3 °F 11.1 °F 54% 29.87 in 10.0 mi West 16.1 mph 23.0 mph N/A   Overcast
3:54 PM 27.1 °F 14.5 °F 11.7 °F 52% 29.87 in 10.0 mi West 17.3 mph 21.9 mph N/A   Overcast
4:15 PM 26.2 °F 13.0 °F 11.8 °F 55% 29.88 in 10.0 mi West 18.4 mph 27.6 mph N/A   Overcast
4:34 PM 25.5 °F 12.0 °F 10.6 °F 53% 29.88 in 10.0 mi West 18.4 mph 23.0 mph N/A   Overcast
4:54 PM 25.7 °F 14.6 °F 12.4 °F 57% 29.88 in 7.0 mi West 12.7 mph - N/A Snow Light Snow
5:15 PM 24.6 °F 11.7 °F 10.9 °F 56% 29.88 in 10.0 mi West 16.1 mph 24.2 mph N/A   Overcast
5:34 PM 24.1 °F 11.0 °F 9.1 °F 53% 29.88 in 7.0 mi West 16.1 mph 24.2 mph N/A   Overcast
5:54 PM 23.7 °F 12.1 °F 8.1 °F 51% 29.89 in 10.0 mi West 12.7 mph 27.6 mph N/A   Overcast
6:15 PM 23.0 °F 9.2 °F 12.0 °F 63% 29.89 in 5.0 mi West 17.3 mph 21.9 mph N/A Snow Light Snow
6:34 PM 23.0 °F 11.1 °F 10.0 °F 58% 29.89 in 10.0 mi WNW 12.7 mph 20.7 mph N/A   Overcast
6:54 PM 21.9 °F 9.2 °F 10.8 °F 62% 29.90 in 4.0 mi West 13.8 mph 18.4 mph N/A Snow Light Snow
7:15 PM 21.9 °F 8.7 °F 9.1 °F 58% 29.90 in 10.0 mi West 15.0 mph 19.6 mph N/A   Scattered Clouds
7:34 PM 21.2 °F 8.3 °F 9.0 °F 59% 29.91 in 10.0 mi West 13.8 mph - N/A   Scattered Clouds
7:54 PM 21.6 °F 7.3 °F 9.1 °F 59% 29.91 in 10.0 mi West 17.3 mph 23.0 mph N/A   Mostly Cloudy
8:15 PM 20.3 °F 7.2 °F 8.6 °F 61% 29.91 in 10.0 mi West 13.8 mph 20.7 mph N/A   Scattered Clouds
8:34 PM 19.9 °F 7.3 °F 9.1 °F 63% 29.91 in 10.0 mi West 12.7 mph - N/A   Scattered Clouds
8:54 PM 19.4 °F 7.9 °F 9.9 °F 66% 29.91 in 10.0 mi West 10.4 mph - N/A   Clear
9:14 PM 19.0 °F 7.5 °F 9.9 °F 67% 29.91 in 10.0 mi West 10.4 mph - N/A   Clear
9:34 PM 19.0 °F 6.8 °F 10.4 °F 69% 29.92 in 10.0 mi West 11.5 mph - N/A   Scattered Clouds
9:55 PM 18.5 °F 8.4 °F 11.8 °F 75% 29.91 in 7.0 mi West 8.1 mph - N/A Snow Light Snow
10:14 PM 18.1 °F 7.9 °F 11.1 °F 74% 29.91 in 10.0 mi West 8.1 mph - N/A   Scattered Clouds
10:34 PM 18.1 °F 5.6 °F 10.4 °F 72% 29.91 in 10.0 mi West 11.5 mph - N/A   Clear
10:55 PM 17.6 °F 5.7 °F 10.4 °F 73% 29.91 in 10.0 mi West 10.4 mph - N/A   Clear
11:14 PM 17.2 °F 6.0 °F 10.4 °F 75% 29.91 in 10.0 mi West 9.2 mph - N/A   Clear
11:35 PM 17.1 °F 6.6 °F 10.2 °F 75% 29.90 in 10.0 mi West 8.1 mph - N/A   Clear
11:54 PM 16.7 °F 6.2 °F 10.4 °F 76% 29.90 in 10.0 mi West 8.1 mph - N/A   Clear